Location: Hamayl? Da??
(36.7028°N, 30.1716°E)
Time: 16:10:52
(UTC+00:00)

Okean-O - Pass Details

Date: 04 August 2024
Orbit: 632 x 634 km, 98.0° (Epoch: 11 September)

Event Time Altitude Azimuth Distance (km) Brightness Sun altitude
Exits shadow 17:53:01 13° 124° (SE) 1,810 4.3 -9.9°
Maximum altitude 17:56:09 28° 70° (ENE) 1,194 3.7 -10.5°
Drops below altitude 10° 17:59:54 10° 12° (NNE) 2,026 5.5 -11.1°
Sets 18:02:20 0° 1° (N) 2,938 6.5 -11.6°
